Location: Plainartige
(45.6866°N, 1.7993°E)
Time: 00:29:19
(UTC+00:00)

X-37B - Pass Details

Date: 28 January 2022
Orbit: 329 x 342 km, 45.0° (Epoch: 18 May)

Event Time Altitude Azimuth Distance (km) Brightness Sun altitude
Rises 19:29:17 0° 255° (WSW) 2,112 5.5 -27.3°
Reaches altitude 10° 19:31:18 10° 252° (WSW) 1,273 4.0 -27.6°
Enters shadow 19:31:28 11° 252° (WSW) 1,207 3.9 -27.7°
